Starlink 31619

operational
NORAD ID: 59531 Int'l Des: 2024-073 Owner: SPXS Country: US Constellation: starlink
LEOCIRCULAR

About Starlink 31619

Description loading...

Live Position

Loading 3D Globe...

Upcoming Passes

Altitude History

Altitude vs Time

uPlot chart will show altitude changes over time

Two-Line Element Set

1 59531U 24073W 25350.23299719 .00001490 00000-0 63653-4 0 9997
2 59531 43.0023 69.1975 0001404 269.7978 90.2712 15.27581199 94531
Epoch: Dec 16, 2025 • Age: 16 hours

Current Status

Altitude 482.4 km
Velocity 7.63 km/s
Sub-Earth Point 6.15°N, 177.51°W
Launch Date Apr 17, 2024
Age 1.6 years
Type internet

Technical Details

Classification Payload
Mass 730.00 kg
Dry Mass 700.00 kg
Total Mass 730.00 kg
Length 0.30 m
Diameter 4.10 m
Span 29.00 m
Shape Box + pan
Manufacturer SPXS
Bus Type Starlink V2M
Phase Status In Orbit
Owner/State SPXS/US

Large Constellations

Loading constellations...